Weather Roundup
Issued by NWS Corpus Christi, TX

Home | Current Version | Previous Version | Text Only | Print | Product List | Glossary On
Versions: 1 2 3 4 5 6 7 8 9 10 11 12 13 14 15 16 17 18 19 20 21 22 23 24 25 26 27 28 29 30 31 32 33 34 35 36 37 38 39 40 41 42 43 44 45 46 47 48 49 50
000
ASUS44 KCRP 221410
HRRCRP

SOUTH TEXAS REGIONAL WEATHER ROUNDUP
NATIONAL WEATHER SERVICE CORPUS CHRISTI TX
900 AM CDT SUN OCT 22 2017


TXZ229>244-221500-
...CORPUS CHRISTI AREA OBSERVATIONS...

CITY           SKY/WX    TMP DP  RH WIND       PRES   REMARKS
CORPUS CHRISTI MOSUNNY   76  76 100 CALM      29.99R
NAS CORPUS CHR NOT AVBL
ROCKPORT       MOSUNNY   79  78  97 CALM      30.00R
KINGSVILLE ARP CLOUDY    77  77 100 CALM      30.01S FOG
KINGSVILLE NAS FOG       76  76 100 CALM      30.00R VSB 1/2
ALICE          MOSUNNY   77  76  96 SW3       30.00R
$$

...VICTORIA AREA OBSERVATIONS...

CITY           SKY/WX    TMP DP  RH WIND       PRES   REMARKS
PORT LAVACA    SUNNY     76  74  93 SE3       30.01R FOG
VICTORIA       FOG       75  74  96 CALM      30.01R VSB 1/4
BEEVILLE       FAIR      73  73 100 CALM      30.01R
PLEASANTON     CLOUDY    73  73 100 N6        30.06R FOG
SAN ANTONIO    LGT RAIN  65  61  87 N10       30.11R
$$

...LAREDO AREA OBSERVATIONS...

CITY           SKY/WX    TMP DP  RH WIND       PRES   REMARKS
LAREDO         CLOUDY    75  72  90 NE3       30.04R
COTULLA        SUNNY     75  72  90 N3        30.04R
DEL RIO        CLOUDY    69  66  90 NW12      30.12R
MCALLEN        CLOUDY    78  76  93 SE5       29.99R
HEBBRONVILLE   CLOUDY    73  72  97 CALM      30.04R FOG
$$

...OTHER TEXAS OBSERVATIONS...

CITY           SKY/WX    TMP DP  RH WIND       PRES   REMARKS
BROWNSVILLE    MOSUNNY   80  79  96 E3        29.98R
HOUSTON        TSTM      63  62  97 NE18G24   30.12R VSB 1
COL. STATION   LGT RAIN  62  61  96 E9G18     30.05F
AUSTIN         TSTM      63  62  97 N17G23    30.10R
WACO           CLOUDY    63  61  93 N5        30.13R
FORT WORTH     CLOUDY    64  61  90 N9        30.11R
WICHITA FALLS  SUNNY     54  50  86 NW9       30.20R
LUBBOCK        SUNNY     43  35  73 NW7       30.29R
EL PASO        CLEAR     56  19  23 N14       30.29R
$$

...MARINE OBSERVATIONS...

STATION/POSITION TIME  SKY/WX   TEMP    WIND        PRES    VSBY  WAVE   SWELL
                                AIR SEA DIR/SP/G                  HT/PER HT/PER
                 (UTC)          (F)     (DEG/KT/KT) (MB)    (MI)  (FT/S) (FT/S)
PORT ARANSAS     NOT AVBL
BUOY 90 E PORT A 1250            82 82  140/ 10/ 12 1014.7          4/ 8   3/ 8
BUOY 200 E PT IS 1350            84 83  150/  2/  4 1015.6R         4/ 8   3/ 8
BUOY 15 E GALVES 1250            80 80  220/  2/  2 1016.0          3/ 5   3/ 5
$$




USA.gov is the U.S. government's official web portal to all federal, state and local government web resources and services.